START_TIME,STEP,MOV.,P11,t_acc.,P23,t_acc.,P27,t_acc.,A4,t_acc.
1986-01-26 18:00:24.370 ,1,0,6.,4.8,0.,4.8,0.,4.8,0.,4.8
1986-01-26 18:00:29.170 ,1,0,8.,4.8,0.,4.8,0.,4.8,0.,4.8
1986-01-26 18:00:33.970 ,1,0,12.,4.8,0.,4.8,0.,4.8,0.,4.8
1986-01-26 18:00:38.770 ,1,0,8.,4.8,0.,4.8,0.,4.8,0.,4.8
1986-01-26 18:00:43.570 ,1,0,9.,4.8,0.,4.8,0.,4.8,0.,4.8
1986-01-26 18:00:48.370 ,2,0,9.,4.8,0.,4.8,0.,4.8,0.,4.8
1986-01-26 18:00:53.170 ,2,0,8.,4.8,0.,4.8,0.,4.8,0.,4.8
1986-01-26 18:00:57.970 ,2,0,7.,4.8,0.,4.8,0.,4.8,0.,4.8
1986-01-26 18:01:02.770 ,2,0,5.,4.8,0.,4.8,0.,4.8,0.,4.8
1986-01-26 18:01:07.570 ,2,0,4.,4.8,0.,4.8,0.,4.8,0.,4.8
1986-01-26 18:01:12.370 ,2,0,6.,4.8,0.,4.8,0.,4.8,0.,4.8
1986-01-26 18:01:17.170 ,2,0,3.,4.8,0.,4.8,0.,4.8,0.,4.8
1986-01-26 18:01:21.970 ,2,0,9.,4.8,0.,4.8,0.,4.8,0.,4.8
1986-01-26 18:01:26.770 ,2,0,9.,4.8,0.,4.8,0.,4.8,0.,4.8
1986-01-26 18:01:31.570 ,2,0,6.,4.8,0.,4.8,0.,4.8,0.,4.8
1986-01-26 18:01:36.370 ,3,0,8.,4.8,0.,4.8,0.,4.8,0.,4.8
1986-01-26 18:01:41.170 ,3,0,5.,4.8,0.,4.8,0.,4.8,0.,4.8
1986-01-26 18:01:45.970 ,3,0,7.,4.8,0.,4.8,0.,4.8,0.,4.8
1986-01-26 18:01:50.770 ,3,0,7.,4.8,0.,4.8,0.,4.8,0.,4.8
1986-01-26 18:01:55.570 ,3,0,4.,4.8,0.,4.8,0.,4.8,0.,4.8
1986-01-26 18:02:00.370 ,3,0,5.,4.8,0.,4.8,0.,4.8,0.,4.8
1986-01-26 18:02:05.170 ,3,0,12.,4.8,0.,4.8,0.,4.8,0.,4.8
1986-01-26 18:02:09.970 ,3,0,6.,4.8,0.,4.8,0.,4.8,0.,4.8
1986-01-26 18:02:14.770 ,3,0,11.,4.8,0.,4.8,0.,4.8,0.,4.8
1986-01-26 18:02:19.570 ,3,0,8.,4.8,0.,4.8,0.,4.8,0.,4.8
1986-01-26 18:02:24.370 ,4,0,6.,4.8,0.,4.8,0.,4.8,0.,4.8
1986-01-26 18:02:29.170 ,4,0,3.,4.8,0.,4.8,0.,4.8,0.,4.8
1986-01-26 18:02:33.970 ,4,0,9.,4.8,0.,4.8,0.,4.8,0.,4.8
1986-01-26 18:02:38.770 ,4,0,5.,4.8,0.,4.8,0.,4.8,0.,4.8
1986-01-26 18:02:43.570 ,4,0,9.,4.8,0.,4.8,0.,4.8,0.,4.8
1986-01-26 18:02:48.370 ,4,0,10.,4.8,0.,4.8,0.,4.8,0.,4.8
1986-01-26 18:02:53.170 ,4,0,6.,4.8,0.,4.8,0.,4.8,0.,4.8
1986-01-26 18:02:57.970 ,4,0,6.,4.8,0.,4.8,0.,4.8,0.,4.8
1986-01-26 18:03:02.770 ,4,0,6.,4.8,0.,4.8,0.,4.8,0.,4.8
1986-01-26 18:03:07.570 ,4,0,5.,4.8,0.,4.8,0.,4.8,0.,4.8
1986-01-26 18:03:12.370 ,5,0,8.,4.8,0.,4.8,0.,4.8,0.,4.8
1986-01-26 18:03:17.170 ,5,0,7.,4.8,0.,4.8,0.,4.8,0.,4.8
1986-01-26 18:03:21.970 ,5,0,7.,4.8,0.,4.8,0.,4.8,0.,4.8
1986-01-26 18:03:26.770 ,5,0,5.,4.8,0.,4.8,0.,4.8,0.,4.8
1986-01-26 18:03:31.570 ,5,0,5.,4.8,0.,4.8,0.,4.8,0.,4.8
1986-01-26 18:03:36.370 ,5,0,5.,4.8,0.,4.8,0.,4.8,0.,4.8
1986-01-26 18:03:41.170 ,5,0,9.,4.8,0.,4.8,0.,4.8,0.,4.8
1986-01-26 18:03:45.970 ,5,0,6.,4.8,0.,4.8,0.,4.8,0.,4.8
1986-01-26 18:03:50.770 ,5,0,6.,4.8,0.,4.8,0.,4.8,0.,4.8
1986-01-26 18:03:55.570 ,5,0,9.,4.8,0.,4.8,0.,4.8,0.,4.8
1986-01-26 18:04:00.370 ,6,0,7.,4.8,0.,4.8,0.,4.8,0.,4.8
1986-01-26 18:04:05.170 ,6,0,6.,4.8,0.,4.8,0.,4.8,0.,4.8
1986-01-26 18:04:09.970 ,6,0,9.,4.8,0.,4.8,0.,4.8,0.,4.8
1986-01-26 18:04:14.770 ,6,0,13.,4.8,0.,4.8,0.,4.8,0.,4.8
1986-01-26 18:04:19.570 ,6,0,8.,4.8,0.,4.8,0.,4.8,0.,4.8
1986-01-26 18:04:24.370 ,6,0,6.,4.8,0.,4.8,0.,4.8,0.,4.8
1986-01-26 18:04:29.170 ,6,0,12.,4.8,0.,4.8,0.,4.8,0.,4.8
1986-01-26 18:04:33.970 ,6,0,10.,4.8,0.,4.8,0.,4.8,0.,4.8
1986-01-26 18:04:38.770 ,6,0,9.,4.8,0.,4.8,0.,4.8,0.,4.8
1986-01-26 18:04:43.570 ,6,0,8.,4.8,0.,4.8,0.,4.8,0.,4.8
1986-01-26 18:04:48.370 ,7,0,12.,4.8,0.,4.8,0.,4.8,0.,4.8
1986-01-26 18:04:53.170 ,7,0,13.,4.8,0.,4.8,0.,4.8,0.,4.8
1986-01-26 18:04:57.970 ,7,0,11.,4.8,0.,4.8,0.,4.8,0.,4.8
1986-01-26 18:05:02.770 ,7,0,5.,4.8,0.,4.8,0.,4.8,0.,4.8
1986-01-26 18:05:07.570 ,7,0,7.,4.8,0.,4.8,0.,4.8,0.,4.8
1986-01-26 18:05:12.370 ,7,0,8.,4.8,0.,4.8,0.,4.8,0.,4.8
1986-01-26 18:05:17.170 ,7,0,6.,4.8,0.,4.8,0.,4.8,0.,4.8
1986-01-26 18:05:21.970 ,7,0,7.,4.8,0.,4.8,0.,4.8,0.,4.8
1986-01-26 18:05:26.770 ,7,0,7.,4.8,0.,4.8,0.,4.8,0.,4.8
1986-01-26 18:05:31.570 ,7,0,9.,4.8,0.,4.8,0.,4.8,0.,4.8
1986-01-26 18:05:36.370 ,7,0,14.,4.8,0.,4.8,0.,4.8,0.,4.8
1986-01-26 18:05:41.170 ,7,0,5.,4.8,0.,4.8,0.,4.8,0.,4.8
1986-01-26 18:05:45.970 ,7,0,9.,4.8,0.,4.8,0.,4.8,0.,4.8
1986-01-26 18:05:50.770 ,7,0,6.,4.8,0.,4.8,0.,4.8,0.,4.8
1986-01-26 18:05:55.570 ,7,0,6.,4.8,0.,4.8,0.,4.8,0.,4.8
1986-01-26 18:06:00.370 ,7,0,11.,4.8,0.,4.8,0.,4.8,0.,4.8
1986-01-26 18:06:05.170 ,7,0,3.,4.8,0.,4.8,0.,4.8,0.,4.8
1986-01-26 18:06:09.970 ,7,0,5.,4.8,0.,4.8,0.,4.8,0.,4.8
1986-01-26 18:06:14.770 ,7,0,6.,4.8,0.,4.8,0.,4.8,0.,4.8
1986-01-26 18:06:19.570 ,7,0,11.,4.8,0.,4.8,0.,4.8,0.,4.8
1986-01-26 18:06:24.370 ,6,0,6.,4.8,0.,4.8,0.,4.8,0.,4.8
1986-01-26 18:06:29.170 ,6,0,2.,4.8,0.,4.8,0.,4.8,0.,4.8
1986-01-26 18:06:33.970 ,6,0,5.,4.8,0.,4.8,0.,4.8,0.,4.8
1986-01-26 18:06:38.770 ,6,0,9.,4.8,0.,4.8,0.,4.8,0.,4.8
1986-01-26 18:06:43.570 ,6,0,7.,4.8,0.,4.8,0.,4.8,0.,4.8
1986-01-26 18:06:48.370 ,6,0,6.,4.8,0.,4.8,0.,4.8,0.,4.8
1986-01-26 18:06:53.170 ,6,0,4.,4.8,0.,4.8,0.,4.8,0.,4.8
1986-01-26 18:06:57.970 ,6,0,5.,4.8,0.,4.8,0.,4.8,0.,4.8
1986-01-26 18:07:02.770 ,6,0,9.,4.8,0.,4.8,0.,4.8,0.,4.8
1986-01-26 18:07:07.570 ,6,0,11.,4.8,0.,4.8,0.,4.8,0.,4.8
1986-01-26 18:07:12.370 ,5,0,9.,4.8,0.,4.8,0.,4.8,0.,4.8
1986-01-26 18:07:17.170 ,5,0,10.,4.8,0.,4.8,0.,4.8,0.,4.8
1986-01-26 18:07:21.970 ,5,0,8.,4.8,0.,4.8,0.,4.8,0.,4.8
1986-01-26 18:07:26.770 ,5,0,8.,4.8,0.,4.8,0.,4.8,0.,4.8
1986-01-26 18:07:31.570 ,5,0,5.,4.8,0.,4.8,0.,4.8,0.,4.8
1986-01-26 18:07:36.370 ,5,0,8.,4.8,0.,4.8,0.,4.8,0.,4.8
1986-01-26 18:07:41.170 ,5,0,8.,4.8,0.,4.8,0.,4.8,0.,4.8
1986-01-26 18:07:45.970 ,5,0,5.,4.8,0.,4.8,0.,4.8,0.,4.8
1986-01-26 18:07:50.770 ,5,0,8.,4.8,0.,4.8,0.,4.8,0.,4.8
1986-01-26 18:07:55.570 ,5,0,11.,4.8,0.,4.8,0.,4.8,0.,4.8
1986-01-26 18:08:00.370 ,4,0,9.,4.8,0.,4.8,0.,4.8,0.,4.8
1986-01-26 18:08:05.170 ,4,0,13.,4.8,0.,4.8,0.,4.8,0.,4.8
1986-01-26 18:08:09.970 ,4,0,11.,4.8,0.,4.8,0.,4.8,0.,4.8
1986-01-26 18:08:14.770 ,4,0,4.,4.8,0.,4.8,0.,4.8,0.,4.8
1986-01-26 18:08:19.570 ,4,0,4.,4.8,0.,4.8,0.,4.8,0.,4.8
1986-01-26 18:08:24.370 ,4,0,3.,4.8,0.,4.8,0.,4.8,0.,4.8
1986-01-26 18:08:29.170 ,4,0,12.,4.8,0.,4.8,0.,4.8,0.,4.8
1986-01-26 18:08:33.970 ,4,0,7.,4.8,0.,4.8,0.,4.8,0.,4.8
1986-01-26 18:08:38.770 ,4,0,9.,4.8,0.,4.8,0.,4.8,0.,4.8
1986-01-26 18:08:43.570 ,4,0,7.,4.8,0.,4.8,0.,4.8,0.,4.8
1986-01-26 18:08:48.370 ,3,0,6.,4.8,0.,4.8,0.,4.8,0.,4.8
1986-01-26 18:08:53.170 ,3,0,9.,4.8,0.,4.8,0.,4.8,0.,4.8
1986-01-26 18:08:57.970 ,3,0,7.,4.8,0.,4.8,0.,4.8,0.,4.8
1986-01-26 18:09:02.770 ,3,0,5.,4.8,0.,4.8,0.,4.8,0.,4.8
1986-01-26 18:09:07.570 ,3,0,4.,4.8,0.,4.8,0.,4.8,0.,4.8
1986-01-26 18:09:12.370 ,3,0,6.,4.8,0.,4.8,0.,4.8,0.,4.8
1986-01-26 18:09:17.170 ,3,0,11.,4.8,0.,4.8,0.,4.8,0.,4.8
1986-01-26 18:09:21.970 ,3,0,13.,4.8,0.,4.8,0.,4.8,0.,4.8
1986-01-26 18:09:26.770 ,3,0,8.,4.8,0.,4.8,0.,4.8,0.,4.8
1986-01-26 18:09:31.570 ,3,0,10.,4.8,0.,4.8,0.,4.8,0.,4.8
1986-01-26 18:09:36.370 ,2,0,6.,4.8,0.,4.8,0.,4.8,0.,4.8
1986-01-26 18:09:41.170 ,2,0,9.,4.8,0.,4.8,0.,4.8,0.,4.8
1986-01-26 18:09:45.970 ,2,0,8.,4.8,0.,4.8,0.,4.8,0.,4.8
1986-01-26 18:09:50.770 ,2,0,6.,4.8,0.,4.8,0.,4.8,0.,4.8
1986-01-26 18:09:55.570 ,2,0,9.,4.8,0.,4.8,0.,4.8,0.,4.8
1986-01-26 18:10:00.370 ,2,0,4.,4.8,0.,4.8,0.,4.8,0.,4.8
1986-01-26 18:10:05.170 ,2,0,5.,4.8,0.,4.8,0.,4.8,0.,4.8
1986-01-26 18:10:09.970 ,2,0,8.,4.8,0.,4.8,0.,4.8,0.,4.8
1986-01-26 18:10:14.770 ,2,0,10.,4.8,0.,4.8,0.,4.8,0.,4.8
1986-01-26 18:10:19.570 ,2,0,1.,4.8,0.,4.8,0.,4.8,0.,4.8
1986-01-26 18:10:24.370 ,1,0,14.,4.8,0.,4.8,0.,4.8,0.,4.8
1986-01-26 18:10:29.170 ,1,0,6.,4.8,0.,4.8,0.,4.8,0.,4.8
1986-01-26 18:10:33.970 ,1,0,2.,4.8,0.,4.8,0.,4.8,0.,4.8
1986-01-26 18:10:38.770 ,1,0,5.,4.8,0.,4.8,0.,4.8,0.,4.8
1986-01-26 18:10:43.570 ,1,0,6.,4.8,0.,4.8,0.,4.8,0.,4.8
1986-01-26 18:10:48.370 ,1,0,9.,4.8,0.,4.8,0.,4.8,0.,4.8
1986-01-26 18:10:53.170 ,1,0,9.,4.8,0.,4.8,0.,4.8,0.,4.8
1986-01-26 18:10:57.970 ,1,0,9.,4.8,0.,4.8,0.,4.8,0.,4.8
1986-01-26 18:11:02.770 ,1,0,10.,4.8,0.,4.8,0.,4.8,0.,4.8
1986-01-26 18:11:07.570 ,1,0,8.,4.8,0.,4.8,0.,4.8,0.,4.8
1986-01-26 18:11:12.370 ,0,0,4.,4.8,0.,4.8,0.,4.8,0.,4.8
1986-01-26 18:11:17.170 ,0,0,17.,4.8,0.,4.8,0.,4.8,0.,4.8
1986-01-26 18:11:21.970 ,0,0,6.,4.8,0.,4.8,0.,4.8,0.,4.8
1986-01-26 18:11:26.770 ,0,0,8.,4.8,0.,4.8,0.,4.8,0.,4.8
1986-01-26 18:11:31.570 ,0,0,5.,4.8,0.,4.8,0.,4.8,0.,4.8
1986-01-26 18:11:36.370 ,0,0,11.,4.8,0.,4.8,0.,4.8,0.,4.8
1986-01-26 18:11:41.170 ,0,0,6.,4.8,0.,4.8,0.,4.8,0.,4.8
1986-01-26 18:11:45.970 ,0,0,8.,4.8,0.,4.8,0.,4.8,0.,4.8
1986-01-26 18:11:50.770 ,0,0,4.,4.8,0.,4.8,0.,4.8,0.,4.8
1986-01-26 18:11:55.570 ,0,0,7.,4.8,0.,4.8,0.,4.8,0.,4.8
1986-01-26 18:12:00.370 ,0,0,4.,4.8,0.,4.8,0.,4.8,0.,4.8
1986-01-26 18:12:05.170 ,0,0,8.,4.8,0.,4.8,0.,4.8,0.,4.8
1986-01-26 18:12:09.970 ,0,0,10.,4.8,0.,4.8,0.,4.8,0.,4.8
1986-01-26 18:12:14.770 ,0,0,3.,4.8,0.,4.8,0.,4.8,0.,4.8
1986-01-26 18:12:19.570 ,0,0,13.,4.8,0.,4.8,0.,4.8,0.,4.8
1986-01-26 18:12:24.370 ,0,0,9.,4.8,0.,4.8,0.,4.8,0.,4.8
1986-01-26 18:12:29.170 ,0,0,7.,4.8,0.,4.8,0.,4.8,0.,4.8
1986-01-26 18:12:33.970 ,0,0,8.,4.8,0.,4.8,0.,4.8,0.,4.8
1986-01-26 18:12:38.770 ,0,0,3.,4.8,0.,4.8,0.,4.8,0.,4.8
1986-01-26 18:12:43.570 ,0,0,4.,4.8,0.,4.8,0.,4.8,0.,4.8
1986-01-26 18:12:48.370 ,1,0,5.,4.8,0.,4.8,0.,4.8,0.,4.8
1986-01-26 18:12:53.170 ,1,0,5.,4.8,0.,4.8,0.,4.8,0.,4.8
1986-01-26 18:12:57.970 ,1,0,16.,4.8,0.,4.8,0.,4.8,0.,4.8
1986-01-26 18:13:02.770 ,1,0,10.,4.8,0.,4.8,0.,4.8,0.,4.8
1986-01-26 18:13:07.570 ,1,0,7.,4.8,0.,4.8,0.,4.8,0.,4.8
1986-01-26 18:13:12.370 ,1,0,10.,4.8,0.,4.8,0.,4.8,0.,4.8
1986-01-26 18:13:17.170 ,1,0,9.,4.8,0.,4.8,0.,4.8,0.,4.8
1986-01-26 18:13:21.970 ,1,0,7.,4.8,0.,4.8,0.,4.8,0.,4.8
1986-01-26 18:13:26.770 ,1,0,1.,4.8,0.,4.8,0.,4.8,0.,4.8
1986-01-26 18:13:31.570 ,1,0,5.,4.8,0.,4.8,0.,4.8,0.,4.8
1986-01-26 18:13:36.370 ,2,0,10.,4.8,0.,4.8,0.,4.8,0.,4.8
1986-01-26 18:13:41.170 ,2,0,6.,4.8,0.,4.8,0.,4.8,0.,4.8
1986-01-26 18:13:45.970 ,2,0,5.,4.8,0.,4.8,0.,4.8,0.,4.8
1986-01-26 18:13:50.770 ,2,0,7.,4.8,0.,4.8,0.,4.8,0.,4.8
1986-01-26 18:13:55.570 ,2,0,11.,4.8,0.,4.8,0.,4.8,0.,4.8
1986-01-26 18:14:00.370 ,2,0,10.,4.8,0.,4.8,0.,4.8,0.,4.8
1986-01-26 18:14:05.170 ,2,0,7.,4.8,0.,4.8,0.,4.8,0.,4.8
1986-01-26 18:14:09.970 ,2,0,6.,4.8,0.,4.8,0.,4.8,0.,4.8
1986-01-26 18:14:14.770 ,2,0,9.,4.8,0.,4.8,0.,4.8,0.,4.8
1986-01-26 18:14:19.570 ,2,0,6.,4.8,0.,4.8,0.,4.8,0.,4.8
1986-01-26 18:14:24.370 ,3,0,4.,4.8,0.,4.8,0.,4.8,0.,4.8
1986-01-26 18:14:29.170 ,3,0,7.,4.8,0.,4.8,0.,4.8,0.,4.8
1986-01-26 18:14:33.970 ,3,0,5.,4.8,0.,4.8,0.,4.8,0.,4.8
1986-01-26 18:14:38.770 ,3,0,4.,4.8,0.,4.8,0.,4.8,0.,4.8
1986-01-26 18:14:43.570 ,3,0,8.,4.8,0.,4.8,0.,4.8,0.,4.8
1986-01-26 18:14:48.370 ,3,0,7.,4.8,0.,4.8,0.,4.8,0.,4.8
1986-01-26 18:14:53.170 ,3,0,9.,4.8,0.,4.8,0.,4.8,0.,4.8
1986-01-26 18:14:57.970 ,3,0,7.,4.8,0.,4.8,0.,4.8,0.,4.8
1986-01-26 18:15:02.770 ,3,0,9.,4.8,0.,4.8,0.,4.8,0.,4.8
1986-01-26 18:15:07.570 ,3,0,14.,4.8,0.,4.8,0.,4.8,0.,4.8
1986-01-26 18:15:12.370 ,4,0,5.,4.8,0.,4.8,0.,4.8,0.,4.8
1986-01-26 18:15:17.170 ,4,0,7.,4.8,0.,4.8,0.,4.8,0.,4.8
1986-01-26 18:15:21.970 ,4,0,5.,4.8,0.,4.8,0.,4.8,0.,4.8
1986-01-26 18:15:26.770 ,4,0,10.,4.8,0.,4.8,0.,4.8,0.,4.8
1986-01-26 18:15:31.570 ,4,0,9.,4.8,0.,4.8,0.,4.8,0.,4.8
1986-01-26 18:15:36.370 ,4,0,12.,4.8,0.,4.8,0.,4.8,0.,4.8
1986-01-26 18:15:41.170 ,4,0,6.,4.8,0.,4.8,0.,4.8,0.,4.8
1986-01-26 18:15:45.970 ,4,0,10.,4.8,0.,4.8,0.,4.8,0.,4.8
1986-01-26 18:15:50.770 ,4,0,5.,4.8,0.,4.8,0.,4.8,0.,4.8
1986-01-26 18:15:55.570 ,4,0,6.,4.8,0.,4.8,0.,4.8,0.,4.8
1986-01-26 18:16:00.370 ,5,0,8.,4.8,0.,4.8,0.,4.8,0.,4.8
1986-01-26 18:16:05.170 ,5,0,5.,4.8,0.,4.8,0.,4.8,0.,4.8
1986-01-26 18:16:09.970 ,5,0,12.,4.8,0.,4.8,0.,4.8,0.,4.8
1986-01-26 18:16:14.770 ,5,0,5.,4.8,0.,4.8,0.,4.8,0.,4.8
1986-01-26 18:16:19.570 ,5,0,7.,4.8,0.,4.8,0.,4.8,0.,4.8
1986-01-26 18:16:24.370 ,5,0,7.,4.8,0.,4.8,0.,4.8,0.,4.8
1986-01-26 18:16:29.170 ,5,0,6.,4.8,0.,4.8,0.,4.8,0.,4.8
1986-01-26 18:16:33.970 ,5,0,5.,4.8,0.,4.8,0.,4.8,0.,4.8
1986-01-26 18:16:38.770 ,5,0,8.,4.8,0.,4.8,0.,4.8,0.,4.8
1986-01-26 18:16:43.570 ,5,0,4.,4.8,0.,4.8,0.,4.8,0.,4.8
1986-01-26 18:16:48.370 ,6,0,7.,4.8,0.,4.8,0.,4.8,0.,4.8
1986-01-26 18:16:53.170 ,6,0,8.,4.8,0.,4.8,0.,4.8,0.,4.8
1986-01-26 18:16:57.970 ,6,0,5.,4.8,0.,4.8,0.,4.8,0.,4.8
1986-01-26 18:17:02.770 ,6,0,6.,4.8,0.,4.8,0.,4.8,0.,4.8
1986-01-26 18:17:07.570 ,6,0,13.,4.8,0.,4.8,0.,4.8,0.,4.8
1986-01-26 18:17:12.370 ,6,0,6.,4.8,0.,4.8,0.,4.8,0.,4.8
1986-01-26 18:17:17.170 ,6,0,3.,4.8,0.,4.8,0.,4.8,0.,4.8
1986-01-26 18:17:21.970 ,6,0,7.,4.8,0.,4.8,0.,4.8,0.,4.8
1986-01-26 18:17:26.770 ,6,0,5.,4.8,0.,4.8,0.,4.8,0.,4.8
1986-01-26 18:17:31.570 ,6,0,5.,4.8,0.,4.8,0.,4.8,0.,4.8
1986-01-26 18:17:36.370 ,7,0,8.,4.8,0.,4.8,0.,4.8,0.,4.8
1986-01-26 18:17:41.170 ,7,0,4.,4.8,0.,4.8,0.,4.8,0.,4.8
1986-01-26 18:17:45.970 ,7,0,6.,4.8,0.,4.8,0.,4.8,0.,4.8
1986-01-26 18:17:50.770 ,7,0,11.,4.8,0.,4.8,0.,4.8,0.,4.8
1986-01-26 18:17:55.570 ,7,0,6.,4.8,0.,4.8,0.,4.8,0.,4.8
1986-01-26 18:18:00.370 ,7,0,5.,4.8,0.,4.8,0.,4.8,0.,4.8
1986-01-26 18:18:05.170 ,7,0,9.,4.8,0.,4.8,0.,4.8,0.,4.8
1986-01-26 18:18:09.970 ,7,0,9.,4.8,0.,4.8,0.,4.8,0.,4.8
1986-01-26 18:18:14.770 ,7,0,3.,4.8,0.,4.8,0.,4.8,0.,4.8
1986-01-26 18:18:19.570 ,7,0,5.,4.8,0.,4.8,0.,4.8,0.,4.8
1986-01-26 18:18:24.370 ,7,0,2.,4.8,0.,4.8,0.,4.8,0.,4.8
1986-01-26 18:18:29.170 ,7,0,8.,4.8,0.,4.8,0.,4.8,0.,4.8
1986-01-26 18:18:33.970 ,7,0,12.,4.8,0.,4.8,0.,4.8,0.,4.8
1986-01-26 18:18:38.770 ,7,0,6.,4.8,0.,4.8,0.,4.8,0.,4.8
1986-01-26 18:18:43.570 ,7,0,11.,4.8,0.,4.8,0.,4.8,0.,4.8
1986-01-26 18:18:48.370 ,7,0,7.,4.8,0.,4.8,0.,4.8,0.,4.8
1986-01-26 18:18:53.170 ,7,0,7.,4.8,0.,4.8,0.,4.8,0.,4.8
1986-01-26 18:18:57.970 ,7,0,7.,4.8,0.,4.8,0.,4.8,0.,4.8
1986-01-26 18:19:02.770 ,7,0,10.,4.8,0.,4.8,0.,4.8,0.,4.8
1986-01-26 18:19:07.570 ,7,0,4.,4.8,0.,4.8,0.,4.8,0.,4.8
1986-01-26 18:19:12.370 ,6,0,5.,4.8,0.,4.8,0.,4.8,0.,4.8
1986-01-26 18:19:17.170 ,6,0,7.,4.8,0.,4.8,0.,4.8,0.,4.8
1986-01-26 18:19:21.970 ,6,0,3.,4.8,0.,4.8,0.,4.8,0.,4.8
1986-01-26 18:19:26.770 ,6,0,5.,4.8,0.,4.8,0.,4.8,0.,4.8
1986-01-26 18:19:31.570 ,6,0,8.,4.8,0.,4.8,0.,4.8,0.,4.8
1986-01-26 18:19:36.370 ,6,0,6.,4.8,0.,4.8,0.,4.8,0.,4.8
1986-01-26 18:19:41.170 ,6,0,7.,4.8,0.,4.8,0.,4.8,0.,4.8
1986-01-26 18:19:45.970 ,6,0,5.,4.8,0.,4.8,0.,4.8,0.,4.8
1986-01-26 18:19:50.770 ,6,0,3.,4.8,0.,4.8,0.,4.8,0.,4.8
1986-01-26 18:19:55.570 ,6,0,3.,4.8,0.,4.8,0.,4.8,0.,4.8
1986-01-26 18:20:00.370 ,5,0,6.,4.8,0.,4.8,0.,4.8,0.,4.8
1986-01-26 18:20:05.170 ,5,0,16.,4.8,0.,4.8,0.,4.8,0.,4.8
1986-01-26 18:20:09.970 ,5,0,8.,4.8,0.,4.8,0.,4.8,0.,4.8
1986-01-26 18:20:14.770 ,5,0,7.,4.8,0.,4.8,0.,4.8,0.,4.8
1986-01-26 18:20:19.570 ,5,0,6.,4.8,0.,4.8,0.,4.8,0.,4.8
1986-01-26 18:20:24.370 ,5,0,6.,4.8,0.,4.8,0.,4.8,0.,4.8
1986-01-26 18:20:29.170 ,5,0,7.,4.8,0.,4.8,0.,4.8,0.,4.8
1986-01-26 18:20:33.970 ,5,0,9.,4.8,0.,4.8,0.,4.8,0.,4.8
1986-01-26 18:20:38.770 ,5,0,7.,4.8,0.,4.8,0.,4.8,0.,4.8
1986-01-26 18:20:43.570 ,5,0,7.,4.8,0.,4.8,0.,4.8,0.,4.8
1986-01-26 18:20:48.370 ,4,0,7.,4.8,0.,4.8,0.,4.8,0.,4.8
1986-01-26 18:20:53.170 ,4,0,11.,4.8,0.,4.8,0.,4.8,0.,4.8
1986-01-26 18:20:57.970 ,4,0,6.,4.8,0.,4.8,0.,4.8,0.,4.8
1986-01-26 18:21:02.770 ,4,0,8.,4.8,0.,4.8,0.,4.8,0.,4.8
1986-01-26 18:21:07.570 ,4,0,10.,4.8,0.,4.8,0.,4.8,0.,4.8
1986-01-26 18:21:12.370 ,4,0,10.,4.8,0.,4.8,0.,4.8,0.,4.8
1986-01-26 18:21:17.170 ,4,0,8.,4.8,0.,4.8,0.,4.8,0.,4.8
1986-01-26 18:21:21.970 ,4,0,6.,4.8,0.,4.8,0.,4.8,0.,4.8
1986-01-26 18:21:26.770 ,4,0,11.,4.8,0.,4.8,0.,4.8,0.,4.8
1986-01-26 18:21:31.570 ,4,0,8.,4.8,0.,4.8,0.,4.8,0.,4.8
1986-01-26 18:21:36.370 ,3,0,7.,4.8,0.,4.8,0.,4.8,0.,4.8
1986-01-26 18:21:41.170 ,3,0,6.,4.8,0.,4.8,0.,4.8,0.,4.8
1986-01-26 18:21:45.970 ,3,0,6.,4.8,0.,4.8,0.,4.8,0.,4.8
1986-01-26 18:21:50.770 ,3,0,4.,4.8,0.,4.8,0.,4.8,0.,4.8
1986-01-26 18:21:55.570 ,3,0,10.,4.8,0.,4.8,0.,4.8,0.,4.8
1986-01-26 18:22:00.370 ,3,0,10.,4.8,0.,4.8,0.,4.8,0.,4.8
1986-01-26 18:22:05.170 ,3,0,9.,4.8,0.,4.8,0.,4.8,0.,4.8
1986-01-26 18:22:09.970 ,3,0,9.,4.8,0.,4.8,0.,4.8,0.,4.8
1986-01-26 18:22:14.770 ,3,0,7.,4.8,0.,4.8,0.,4.8,0.,4.8
1986-01-26 18:22:19.570 ,3,0,8.,4.8,0.,4.8,0.,4.8,0.,4.8
1986-01-26 18:22:24.370 ,2,0,9.,4.8,0.,4.8,0.,4.8,0.,4.8
1986-01-26 18:22:29.170 ,2,0,8.,4.8,0.,4.8,0.,4.8,0.,4.8
1986-01-26 18:22:33.970 ,2,0,4.,4.8,0.,4.8,0.,4.8,0.,4.8
1986-01-26 18:22:38.770 ,2,0,10.,4.8,0.,4.8,0.,4.8,0.,4.8
1986-01-26 18:22:43.570 ,2,0,2.,4.8,0.,4.8,0.,4.8,0.,4.8
1986-01-26 18:22:48.370 ,2,0,6.,4.8,0.,4.8,0.,4.8,0.,4.8
1986-01-26 18:22:53.170 ,2,0,7.,4.8,0.,4.8,0.,4.8,0.,4.8
1986-01-26 18:22:57.970 ,2,0,6.,4.8,0.,4.8,0.,4.8,0.,4.8
1986-01-26 18:23:02.770 ,2,0,11.,4.8,0.,4.8,0.,4.8,0.,4.8
1986-01-26 18:23:07.570 ,2,0,6.,4.8,0.,4.8,0.,4.8,0.,4.8
1986-01-26 18:23:12.370 ,1,0,3.,4.8,0.,4.8,0.,4.8,0.,4.8
1986-01-26 18:23:17.170 ,1,0,7.,4.8,0.,4.8,0.,4.8,0.,4.8
1986-01-26 18:23:21.970 ,1,0,6.,4.8,0.,4.8,0.,4.8,0.,4.8
1986-01-26 18:23:26.770 ,1,0,10.,4.8,0.,4.8,0.,4.8,0.,4.8
1986-01-26 18:23:31.570 ,1,0,4.,4.8,0.,4.8,0.,4.8,0.,4.8
1986-01-26 18:23:36.370 ,1,0,9.,4.8,0.,4.8,0.,4.8,0.,4.8
1986-01-26 18:23:41.170 ,1,0,5.,4.8,0.,4.8,0.,4.8,0.,4.8
1986-01-26 18:23:45.970 ,1,0,6.,4.8,0.,4.8,0.,4.8,0.,4.8
1986-01-26 18:23:50.770 ,1,0,7.,4.8,0.,4.8,0.,4.8,0.,4.8
1986-01-26 18:23:55.570 ,1,0,2.,4.8,0.,4.8,0.,4.8,0.,4.8
1986-01-26 18:24:00.370 ,0,0,9.,4.8,0.,4.8,0.,4.8,0.,4.8
1986-01-26 18:24:05.170 ,0,0,9.,4.8,0.,4.8,0.,4.8,0.,4.8
1986-01-26 18:24:09.970 ,0,0,5.,4.8,0.,4.8,0.,4.8,0.,4.8
1986-01-26 18:24:14.770 ,0,0,3.,4.8,0.,4.8,0.,4.8,0.,4.8
1986-01-26 18:24:19.570 ,0,0,4.,4.8,0.,4.8,0.,4.8,0.,4.8
1986-01-26 18:24:24.370 ,0,0,10.,4.8,0.,4.8,0.,4.8,0.,4.8
1986-01-26 18:24:29.170 ,0,0,10.,4.8,0.,4.8,0.,4.8,0.,4.8
1986-01-26 18:24:33.970 ,0,0,8.,4.8,0.,4.8,0.,4.8,0.,4.8
1986-01-26 18:24:38.770 ,0,0,8.,4.8,0.,4.8,0.,4.8,0.,4.8
1986-01-26 18:24:43.570 ,0,0,4.,4.8,0.,4.8,0.,4.8,0.,4.8
1986-01-26 18:24:48.370 ,0,0,5.,4.8,0.,4.8,0.,4.8,0.,4.8
1986-01-26 18:24:53.170 ,0,0,8.,4.8,0.,4.8,0.,4.8,0.,4.8
1986-01-26 18:24:57.970 ,0,0,10.,4.8,0.,4.8,0.,4.8,0.,4.8
1986-01-26 18:25:02.770 ,0,0,5.,4.8,0.,4.8,0.,4.8,0.,4.8
1986-01-26 18:25:07.570 ,0,0,8.,4.8,0.,4.8,0.,4.8,0.,4.8
1986-01-26 18:25:12.370 ,0,0,8.,4.8,0.,4.8,0.,4.8,0.,4.8
1986-01-26 18:25:17.170 ,0,0,12.,4.8,0.,4.8,0.,4.8,0.,4.8
1986-01-26 18:25:21.970 ,0,0,8.,4.8,0.,4.8,0.,4.8,0.,4.8
1986-01-26 18:25:26.770 ,0,0,2.,4.8,0.,4.8,0.,4.8,0.,4.8
1986-01-26 18:25:31.570 ,0,0,8.,4.8,0.,4.8,0.,4.8,0.,4.8
1986-01-26 18:25:36.370 ,1,0,9.,4.8,0.,4.8,0.,4.8,0.,4.8
1986-01-26 18:25:41.170 ,1,0,8.,4.8,0.,4.8,0.,4.8,0.,4.8
1986-01-26 18:25:45.970 ,1,0,4.,4.8,0.,4.8,0.,4.8,0.,4.8
1986-01-26 18:25:50.770 ,1,0,4.,4.8,0.,4.8,0.,4.8,0.,4.8
1986-01-26 18:25:55.570 ,1,0,8.,4.8,0.,4.8,0.,4.8,0.,4.8
1986-01-26 18:26:00.370 ,1,0,7.,4.8,0.,4.8,0.,4.8,0.,4.8
1986-01-26 18:26:05.170 ,1,0,6.,4.8,0.,4.8,0.,4.8,0.,4.8
1986-01-26 18:26:09.970 ,1,0,11.,4.8,0.,4.8,0.,4.8,0.,4.8
1986-01-26 18:26:14.770 ,1,0,9.,4.8,0.,4.8,0.,4.8,0.,4.8
1986-01-26 18:26:19.570 ,1,0,6.,4.8,0.,4.8,0.,4.8,0.,4.8
1986-01-26 18:26:24.370 ,2,0,1.,4.8,0.,4.8,0.,4.8,0.,4.8
1986-01-26 18:26:29.170 ,2,0,2.,4.8,0.,4.8,0.,4.8,0.,4.8
1986-01-26 18:26:33.970 ,2,0,9.,4.8,0.,4.8,0.,4.8,0.,4.8
1986-01-26 18:26:38.770 ,2,0,12.,4.8,0.,4.8,0.,4.8,0.,4.8
1986-01-26 18:26:43.570 ,2,0,3.,4.8,0.,4.8,0.,4.8,0.,4.8
1986-01-26 18:26:48.370 ,2,0,13.,4.8,0.,4.8,0.,4.8,0.,4.8
1986-01-26 18:26:53.170 ,2,0,9.,4.8,0.,4.8,0.,4.8,0.,4.8
1986-01-26 18:26:57.970 ,2,0,12.,4.8,0.,4.8,0.,4.8,0.,4.8
1986-01-26 18:27:02.770 ,2,0,6.,4.8,0.,4.8,0.,4.8,0.,4.8
1986-01-26 18:27:07.570 ,2,0,6.,4.8,0.,4.8,0.,4.8,0.,4.8
1986-01-26 18:27:12.370 ,3,0,5.,4.8,0.,4.8,0.,4.8,0.,4.8
1986-01-26 18:27:17.170 ,3,0,11.,4.8,0.,4.8,0.,4.8,0.,4.8
1986-01-26 18:27:21.970 ,3,0,4.,4.8,0.,4.8,0.,4.8,0.,4.8
1986-01-26 18:27:26.770 ,3,0,5.,4.8,0.,4.8,0.,4.8,0.,4.8
1986-01-26 18:27:31.570 ,3,0,8.,4.8,0.,4.8,0.,4.8,0.,4.8
1986-01-26 18:27:36.370 ,3,0,8.,4.8,0.,4.8,0.,4.8,0.,4.8
1986-01-26 18:27:41.170 ,3,0,4.,4.8,0.,4.8,0.,4.8,0.,4.8
1986-01-26 18:27:45.970 ,3,0,7.,4.8,0.,4.8,0.,4.8,0.,4.8
1986-01-26 18:27:50.770 ,3,0,8.,4.8,0.,4.8,0.,4.8,0.,4.8
1986-01-26 18:27:55.570 ,3,0,9.,4.8,0.,4.8,0.,4.8,0.,4.8
1986-01-26 18:28:00.370 ,4,0,3.,4.8,0.,4.8,0.,4.8,0.,4.8
1986-01-26 18:28:05.170 ,4,0,6.,4.8,0.,4.8,0.,4.8,0.,4.8
1986-01-26 18:28:09.970 ,4,0,5.,4.8,0.,4.8,0.,4.8,0.,4.8
1986-01-26 18:28:14.770 ,4,0,7.,4.8,0.,4.8,0.,4.8,0.,4.8
1986-01-26 18:28:19.570 ,4,0,6.,4.8,0.,4.8,0.,4.8,0.,4.8
1986-01-26 18:28:24.370 ,4,0,5.,4.8,0.,4.8,0.,4.8,0.,4.8
1986-01-26 18:28:29.170 ,4,0,5.,4.8,0.,4.8,0.,4.8,0.,4.8
1986-01-26 18:28:33.970 ,4,0,8.,4.8,0.,4.8,0.,4.8,0.,4.8
1986-01-26 18:28:38.770 ,4,0,7.,4.8,0.,4.8,0.,4.8,0.,4.8
1986-01-26 18:28:43.570 ,4,0,5.,4.8,0.,4.8,0.,4.8,0.,4.8
1986-01-26 18:28:48.370 ,5,0,10.,4.8,0.,4.8,0.,4.8,0.,4.8
1986-01-26 18:28:53.170 ,5,0,12.,4.8,0.,4.8,0.,4.8,0.,4.8
1986-01-26 18:28:57.970 ,5,0,5.,4.8,0.,4.8,0.,4.8,0.,4.8
1986-01-26 18:29:02.770 ,5,0,5.,4.8,0.,4.8,0.,4.8,0.,4.8
1986-01-26 18:29:07.570 ,5,0,6.,4.8,0.,4.8,0.,4.8,0.,4.8
1986-01-26 18:29:12.370 ,5,0,7.,4.8,0.,4.8,0.,4.8,0.,4.8
1986-01-26 18:29:17.170 ,5,0,8.,4.8,0.,4.8,0.,4.8,0.,4.8
1986-01-26 18:29:21.970 ,5,0,8.,4.8,0.,4.8,0.,4.8,0.,4.8
1986-01-26 18:29:26.770 ,5,0,10.,4.8,0.,4.8,0.,4.8,0.,4.8
1986-01-26 18:29:31.570 ,5,0,7.,4.8,0.,4.8,0.,4.8,0.,4.8
1986-01-26 18:29:36.370 ,6,0,8.,4.8,0.,4.8,0.,4.8,0.,4.8
1986-01-26 18:29:41.170 ,6,0,10.,4.8,0.,4.8,0.,4.8,0.,4.8
1986-01-26 18:29:45.970 ,6,0,9.,4.8,0.,4.8,0.,4.8,0.,4.8
1986-01-26 18:29:50.770 ,6,0,6.,4.8,0.,4.8,0.,4.8,0.,4.8
1986-01-26 18:29:55.570 ,6,0,11.,4.8,0.,4.8,0.,4.8,0.,4.8
1986-01-26 18:30:00.370 ,6,0,8.,4.8,0.,4.8,0.,4.8,0.,4.8
1986-01-26 18:30:05.170 ,6,0,7.,4.8,0.,4.8,0.,4.8,0.,4.8
1986-01-26 18:30:09.970 ,6,0,8.,4.8,0.,4.8,0.,4.8,0.,4.8
1986-01-26 18:30:14.770 ,6,0,7.,4.8,0.,4.8,0.,4.8,0.,4.8
1986-01-26 18:30:19.570 ,6,0,7.,4.8,0.,4.8,0.,4.8,0.,4.8
1986-01-26 18:30:24.370 ,7,0,12.,4.8,0.,4.8,0.,4.8,0.,4.8
1986-01-26 18:30:29.170 ,7,0,4.,4.8,0.,4.8,0.,4.8,0.,4.8
1986-01-26 18:30:33.970 ,7,0,7.,4.8,0.,4.8,0.,4.8,0.,4.8
1986-01-26 18:30:38.770 ,7,0,8.,4.8,0.,4.8,0.,4.8,0.,4.8
1986-01-26 18:30:43.570 ,7,0,12.,4.8,0.,4.8,0.,4.8,0.,4.8
1986-01-26 18:30:48.370 ,7,0,8.,4.8,0.,4.8,0.,4.8,0.,4.8
1986-01-26 18:30:53.170 ,7,0,6.,4.8,0.,4.8,0.,4.8,0.,4.8
1986-01-26 18:30:57.970 ,7,0,9.,4.8,0.,4.8,0.,4.8,0.,4.8
1986-01-26 18:31:02.770 ,7,0,8.,4.8,0.,4.8,0.,4.8,0.,4.8
1986-01-26 18:31:07.570 ,7,0,8.,4.8,0.,4.8,0.,4.8,0.,4.8
1986-01-26 18:31:12.370 ,7,0,7.,4.8,0.,4.8,0.,4.8,0.,4.8
1986-01-26 18:31:17.170 ,7,0,5.,4.8,0.,4.8,0.,4.8,0.,4.8
1986-01-26 18:31:21.970 ,7,0,9.,4.8,0.,4.8,0.,4.8,0.,4.8
1986-01-26 18:31:26.770 ,7,0,5.,4.8,0.,4.8,0.,4.8,0.,4.8
1986-01-26 18:31:31.570 ,7,0,9.,4.8,0.,4.8,0.,4.8,0.,4.8
1986-01-26 18:31:36.370 ,7,0,6.,4.8,0.,4.8,0.,4.8,0.,4.8
1986-01-26 18:31:41.170 ,7,0,3.,4.8,0.,4.8,0.,4.8,0.,4.8
1986-01-26 18:31:45.970 ,7,0,8.,4.8,0.,4.8,0.,4.8,0.,4.8
1986-01-26 18:31:50.770 ,7,0,4.,4.8,0.,4.8,0.,4.8,0.,4.8
1986-01-26 18:31:55.570 ,7,0,14.,4.8,0.,4.8,0.,4.8,0.,4.8
1986-01-26 18:32:00.370 ,6,0,8.,4.8,0.,4.8,0.,4.8,0.,4.8
1986-01-26 18:32:05.170 ,6,0,7.,4.8,0.,4.8,0.,4.8,0.,4.8
1986-01-26 18:32:09.970 ,6,0,5.,4.8,0.,4.8,0.,4.8,0.,4.8
1986-01-26 18:32:14.770 ,6,0,3.,4.8,0.,4.8,0.,4.8,0.,4.8
1986-01-26 18:32:19.570 ,6,0,9.,4.8,0.,4.8,0.,4.8,0.,4.8
1986-01-26 18:32:24.370 ,6,0,6.,4.8,0.,4.8,0.,4.8,0.,4.8
1986-01-26 18:32:29.170 ,6,0,6.,4.8,0.,4.8,0.,4.8,0.,4.8
1986-01-26 18:32:33.970 ,6,0,9.,4.8,0.,4.8,0.,4.8,0.,4.8
1986-01-26 18:32:38.770 ,6,0,3.,4.8,0.,4.8,0.,4.8,0.,4.8
1986-01-26 18:32:43.570 ,6,0,9.,4.8,0.,4.8,0.,4.8,0.,4.8
1986-01-26 18:32:48.370 ,5,0,5.,4.8,0.,4.8,0.,4.8,0.,4.8
1986-01-26 18:32:53.170 ,5,0,9.,4.8,0.,4.8,0.,4.8,0.,4.8
1986-01-26 18:32:57.970 ,5,0,8.,4.8,0.,4.8,0.,4.8,0.,4.8
1986-01-26 18:33:02.770 ,5,0,5.,4.8,0.,4.8,0.,4.8,0.,4.8
1986-01-26 18:33:07.570 ,5,0,8.,4.8,0.,4.8,0.,4.8,0.,4.8
1986-01-26 18:33:12.370 ,5,0,4.,4.8,0.,4.8,0.,4.8,0.,4.8